Tracking 28081 objects as of 26-Sep-2023
HD Live streaming from Space Station
objects crossing your sky now

STARLINK-5179

Track STARLINK-5179 now!
10-day predictions
STARLINK-5179 is classified as:


NORAD ID: 54102
Int'l Code: 2022-136BD
Perigee: 551.0 km
Apogee: 552.6 km
Inclination: 53.2 °
Period: 95.5 minutes
Semi major axis: 6922 km
RCS: Unknown
Launch date: October 20, 2022
Source: United States (US)
Launch site: AIR FORCE EASTERN TEST RANGE (AFETR)
Your satellite tracking list
Your tracking list is empty




NASA's NSSDC Master Catalog

Two Line Element Set (TLE):
1 54102U 22136BD  23268.82378425  .00005453  00000-0  37631-3 0  9996
2 54102  53.2191  35.4670 0001204  72.2578 287.8545 15.07230608 51746
Source of the keplerian elements: AFSPC